Data supplied by UK-AIR on 8/11/2015
All Data GMT hour ending 
Status: R =Ratified P=Provisional,P*=As supplied
,,London Harrow Stanmore,,,,,,,,,,,,,,,,,,,,,,,
Date,time,"Non-volatile PM<sub>2.5</sub> (Hourly measured)",status,unit,"PM<sub>2.5</sub> particulate matter (Hourly measured)",status,unit,"Volatile PM<sub>2.5</sub> (Hourly measured)",status,unit
 
01-01-2014,01:00,17.800,R,ugm-3 (TEOM FDMS),19.300,R,ugm-3 (TEOM FDMS),1.800,R,ugm-3 (TEOM FDMS)
01-01-2014,02:00,5.200,R,ugm-3 (TEOM FDMS),7.400,R,ugm-3 (TEOM FDMS),2.300,R,ugm-3 (TEOM FDMS)
01-01-2014,03:00,2.400,R,ugm-3 (TEOM FDMS),3.200,R,ugm-3 (TEOM FDMS),0.800,R,ugm-3 (TEOM FDMS)
01-01-2014,04:00,4.100,R,ugm-3 (TEOM FDMS),7.600,R,ugm-3 (TEOM FDMS),3.700,R,ugm-3 (TEOM FDMS)
01-01-2014,05:00,4.000,R,ugm-3 (TEOM FDMS),5.400,R,ugm-3 (TEOM FDMS),1.500,R,ugm-3 (TEOM FDMS)
01-01-2014,06:00,2.600,R,ugm-3 (TEOM FDMS),6.600,R,ugm-3 (TEOM FDMS),4.100,R,ugm-3 (TEOM FDMS)
01-01-2014,07:00,1.100,R,ugm-3 (TEOM FDMS),5.100,R,ugm-3 (TEOM FDMS),4.100,R,ugm-3 (TEOM FDMS)
01-01-2014,08:00,4.400,R,ugm-3 (TEOM FDMS),6.600,R,ugm-3 (TEOM FDMS),2.300,R,ugm-3 (TEOM FDMS)
01-01-2014,09:00,3.900,R,ugm-3 (TEOM FDMS),7.400,R,ugm-3 (TEOM FDMS),3.700,R,ugm-3 (TEOM FDMS)
01-01-2014,10:00,2.800,R,ugm-3 (TEOM FDMS),7.100,R,ugm-3 (TEOM FDMS),4.400,R,ugm-3 (TEOM FDMS)
01-01-2014,11:00,-1.000,R,ugm-3 (TEOM FDMS),3.700,R,ugm-3 (TEOM FDMS),4.800,R,ugm-3 (TEOM FDMS)
01-01-2014,12:00,-1.700,R,ugm-3 (TEOM FDMS),4.900,R,ugm-3 (TEOM FDMS),6.700,R,ugm-3 (TEOM FDMS)
01-01-2014,13:00,-2.000,R,ugm-3 (TEOM FDMS),2.900,R,ugm-3 (TEOM FDMS),5.000,R,ugm-3 (TEOM FDMS)
01-01-2014,14:00,-0.500,R,ugm-3 (TEOM FDMS),5.500,R,ugm-3 (TEOM FDMS),6.100,R,ugm-3 (TEOM FDMS)
01-01-2014,15:00,1.500,R,ugm-3 (TEOM FDMS),5.100,R,ugm-3 (TEOM FDMS),3.700,R,ugm-3 (TEOM FDMS)
01-01-2014,16:00,-0.100,R,ugm-3 (TEOM FDMS),3.500,R,ugm-3 (TEOM FDMS),3.700,R,ugm-3 (TEOM FDMS)
01-01-2014,17:00,-0.300,R,ugm-3 (TEOM FDMS),4.600,R,ugm-3 (TEOM FDMS),5.000,R,ugm-3 (TEOM FDMS)
01-01-2014,18:00,-0.700,R,ugm-3 (TEOM FDMS),2.400,R,ugm-3 (TEOM FDMS),3.200,R,ugm-3 (TEOM FDMS)
01-01-2014,19:00,2.200,R,ugm-3 (TEOM FDMS),4.600,R,ugm-3 (TEOM FDMS),2.400,R,ugm-3 (TEOM FDMS)
01-01-2014,20:00,1.900,R,ugm-3 (TEOM FDMS),4.800,R,ugm-3 (TEOM FDMS),2.900,R,ugm-3 (TEOM FDMS)
01-01-2014,21:00,2.400,R,ugm-3 (TEOM FDMS),5.700,R,ugm-3 (TEOM FDMS),3.400,R,ugm-3 (TEOM FDMS)
01-01-2014,22:00,0.400,R,ugm-3 (TEOM FDMS),2.100,R,ugm-3 (TEOM FDMS),1.700,R,ugm-3 (TEOM FDMS)
01-01-2014,23:00,2.400,R,ugm-3 (TEOM FDMS),5.000,R,ugm-3 (TEOM FDMS),2.600,R,ugm-3 (TEOM FDMS)
01-01-2014,24:00,4.700,R,ugm-3 (TEOM FDMS),6.000,R,ugm-3 (TEOM FDMS),1.400,R,ugm-3 (TEOM FDMS)
02-01-2014,01:00,3.900,R,ugm-3 (TEOM FDMS),2.300,R,ugm-3 (TEOM FDMS),-1.500,R,ugm-3 (TEOM FDMS)
02-01-2014,02:00,5.100,R,ugm-3 (TEOM FDMS),5.900,R,ugm-3 (TEOM FDMS),0.900,R,ugm-3 (TEOM FDMS)
02-01-2014,03:00,2.900,R,ugm-3 (TEOM FDMS),3.900,R,ugm-3 (TEOM FDMS),1.000,R,ugm-3 (TEOM FDMS)
02-01-2014,04:00,2.700,R,ugm-3 (TEOM FDMS),2.400,R,ugm-3 (TEOM FDMS),-0.300,R,ugm-3 (TEOM FDMS)
02-01-2014,05:00,4.300,R,ugm-3 (TEOM FDMS),2.500,R,ugm-3 (TEOM FDMS),-1.700,R,ugm-3 (TEOM FDMS)
02-01-2014,06:00,4.100,R,ugm-3 (TEOM FDMS),4.200,R,ugm-3 (TEOM FDMS),0.200,R,ugm-3 (TEOM FDMS)
02-01-2014,07:00,5.300,R,ugm-3 (TEOM FDMS),5.100,R,ugm-3 (TEOM FDMS),-0.100,R,ugm-3 (TEOM FDMS)
02-01-2014,08:00,4.900,R,ugm-3 (TEOM FDMS),4.400,R,ugm-3 (TEOM FDMS),-0.400,R,ugm-3 (TEOM FDMS)
02-01-2014,09:00,5.100,R,ugm-3 (TEOM FDMS),4.400,R,ugm-3 (TEOM FDMS),-0.600,R,ugm-3 (TEOM FDMS)
02-01-2014,10:00,5.500,R,ugm-3 (TEOM FDMS),3.400,R,ugm-3 (TEOM FDMS),-2.000,R,ugm-3 (TEOM FDMS)
02-01-2014,11:00,4.500,R,ugm-3 (TEOM FDMS),5.400,R,ugm-3 (TEOM FDMS),1.000,R,ugm-3 (TEOM FDMS)
02-01-2014,12:00,5.200,R,ugm-3 (TEOM FDMS),6.200,R,ugm-3 (TEOM FDMS),1.100,R,ugm-3 (TEOM FDMS)
02-01-2014,13:00,4.700,R,ugm-3 (TEOM FDMS),5.800,R,ugm-3 (TEOM FDMS),1.200,R,ugm-3 (TEOM FDMS)
02-01-2014,14:00,4.700,R,ugm-3 (TEOM FDMS),4.900,R,ugm-3 (TEOM FDMS),0.300,R,ugm-3 (TEOM FDMS)
02-01-2014,15:00,5.300,R,ugm-3 (TEOM FDMS),7.700,R,ugm-3 (TEOM FDMS),2.500,R,ugm-3 (TEOM FDMS)
02-01-2014,16:00,6.800,R,ugm-3 (TEOM FDMS),10.600,R,ugm-3 (TEOM FDMS),4.000,R,ugm-3 (TEOM FDMS)
02-01-2014,17:00,5.100,R,ugm-3 (TEOM FDMS),8.100,R,ugm-3 (TEOM FDMS),3.200,R,ugm-3 (TEOM FDMS)
02-01-2014,18:00,5.300,R,ugm-3 (TEOM FDMS),7.100,R,ugm-3 (TEOM FDMS),1.900,R,ugm-3 (TEOM FDMS)
02-01-2014,19:00,5.600,R,ugm-3 (TEOM FDMS),7.800,R,ugm-3 (TEOM FDMS),2.300,R,ugm-3 (TEOM FDMS)
02-01-2014,20:00,4.300,R,ugm-3 (TEOM FDMS),6.000,R,ugm-3 (TEOM FDMS),1.800,R,ugm-3 (TEOM FDMS)
02-01-2014,21:00,5.400,R,ugm-3 (TEOM FDMS),7.500,R,ugm-3 (TEOM FDMS),2.200,R,ugm-3 (TEOM FDMS)
02-01-2014,22:00,3.200,R,ugm-3 (TEOM FDMS),7.300,R,ugm-3 (TEOM FDMS),4.300,R,ugm-3 (TEOM FDMS)
02-01-2014,23:00,4.100,R,ugm-3 (TEOM FDMS),6.400,R,ugm-3 (TEOM FDMS),2.400,R,ugm-3 (TEOM FDMS)
02-01-2014,24:00,3.500,R,ugm-3 (TEOM FDMS),7.600,R,ugm-3 (TEOM FDMS),4.300,R,ugm-3 (TEOM FDMS)
03-01-2014,01:00,-0.100,R,ugm-3 (TEOM FDMS),2.500,R,ugm-3 (TEOM FDMS),2.600,R,ugm-3 (TEOM FDMS)
03-01-2014,02:00,0.700,R,ugm-3 (TEOM FDMS),3.600,R,ugm-3 (TEOM FDMS),2.900,R,ugm-3 (TEOM FDMS)
03-01-2014,03:00,0.900,R,ugm-3 (TEOM FDMS),1.800,R,ugm-3 (TEOM FDMS),0.900,R,ugm-3 (TEOM FDMS)
03-01-2014,04:00,2.300,R,ugm-3 (TEOM FDMS),4.700,R,ugm-3 (TEOM FDMS),2.400,R,ugm-3 (TEOM FDMS)
03-01-2014,05:00,4.000,R,ugm-3 (TEOM FDMS),5.500,R,ugm-3 (TEOM FDMS),1.600,R,ugm-3 (TEOM FDMS)
03-01-2014,06:00,7.600,R,ugm-3 (TEOM FDMS),8.800,R,ugm-3 (TEOM FDMS),1.300,R,ugm-3 (TEOM FDMS)
03-01-2014,07:00,9.300,R,ugm-3 (TEOM FDMS),11.500,R,ugm-3 (TEOM FDMS),2.400,R,ugm-3 (TEOM FDMS)
03-01-2014,08:00,0.200,R,ugm-3 (TEOM FDMS),0.000,R,ugm-3 (TEOM FDMS),-0.200,R,ugm-3 (TEOM FDMS)
03-01-2014,09:00,-0.500,R,ugm-3 (TEOM FDMS),-0.900,R,ugm-3 (TEOM FDMS),-0.400,R,ugm-3 (TEOM FDMS)
03-01-2014,10:00,3.600,R,ugm-3 (TEOM FDMS),2.600,R,ugm-3 (TEOM FDMS),-0.900,R,ugm-3 (TEOM FDMS)
03-01-2014,11:00,4.300,R,ugm-3 (TEOM FDMS),4.400,R,ugm-3 (TEOM FDMS),0.200,R,ugm-3 (TEOM FDMS)
03-01-2014,12:00,3.800,R,ugm-3 (TEOM FDMS),5.600,R,ugm-3 (TEOM FDMS),1.900,R,ugm-3 (TEOM FDMS)
03-01-2014,13:00,4.800,R,ugm-3 (TEOM FDMS),4.300,R,ugm-3 (TEOM FDMS),-0.400,R,ugm-3 (TEOM FDMS)
03-01-2014,14:00,,,,,,,,,
03-01-2014,15:00,2.100,R,ugm-3 (TEOM FDMS),3.300,R,ugm-3 (TEOM FDMS),1.200,R,ugm-3 (TEOM FDMS)
03-01-2014,16:00,5.300,R,ugm-3 (TEOM FDMS),7.300,R,ugm-3 (TEOM FDMS),2.100,R,ugm-3 (TEOM FDMS)
03-01-2014,17:00,8.100,R,ugm-3 (TEOM FDMS),9.800,R,ugm-3 (TEOM FDMS),1.800,R,ugm-3 (TEOM FDMS)
03-01-2014,18:00,6.900,R,ugm-3 (TEOM FDMS),6.600,R,ugm-3 (TEOM FDMS),-0.200,R,ugm-3 (TEOM FDMS)
03-01-2014,19:00,5.700,R,ugm-3 (TEOM FDMS),5.600,R,ugm-3 (TEOM FDMS),0.000,R,ugm-3 (TEOM FDMS)
03-01-2014,20:00,8.400,R,ugm-3 (TEOM FDMS),9.500,R,ugm-3 (TEOM FDMS),1.200,R,ugm-3 (TEOM FDMS)
03-01-2014,21:00,11.100,R,ugm-3 (TEOM FDMS),9.400,R,ugm-3 (TEOM FDMS),-1.500,R,ugm-3 (TEOM FDMS)
03-01-2014,22:00,9.700,R,ugm-3 (TEOM FDMS),9.200,R,ugm-3 (TEOM FDMS),-0.300,R,ugm-3 (TEOM FDMS)
03-01-2014,23:00,10.400,R,ugm-3 (TEOM FDMS),11.300,R,ugm-3 (TEOM FDMS),1.100,R,ugm-3 (TEOM FDMS)
03-01-2014,24:00,9.400,R,ugm-3 (TEOM FDMS),10.500,R,ugm-3 (TEOM FDMS),1.300,R,ugm-3 (TEOM FDMS)
04-01-2014,01:00,7.400,R,ugm-3 (TEOM FDMS),8.600,R,ugm-3 (TEOM FDMS),1.300,R,ugm-3 (TEOM FDMS)
04-01-2014,02:00,6.200,R,ugm-3 (TEOM FDMS),8.000,R,ugm-3 (TEOM FDMS),1.900,R,ugm-3 (TEOM FDMS)
04-01-2014,03:00,2.500,R,ugm-3 (TEOM FDMS),5.200,R,ugm-3 (TEOM FDMS),2.700,R,ugm-3 (TEOM FDMS)
04-01-2014,04:00,4.300,R,ugm-3 (TEOM FDMS),7.600,R,ugm-3 (TEOM FDMS),3.500,R,ugm-3 (TEOM FDMS)
04-01-2014,05:00,3.300,R,ugm-3 (TEOM FDMS),6.600,R,ugm-3 (TEOM FDMS),3.500,R,ugm-3 (TEOM FDMS)
04-01-2014,06:00,-3.100,R,ugm-3 (TEOM FDMS),5.200,R,ugm-3 (TEOM FDMS),8.300,R,ugm-3 (TEOM FDMS)
04-01-2014,07:00,0.300,R,ugm-3 (TEOM FDMS),3.000,R,ugm-3 (TEOM FDMS),2.700,R,ugm-3 (TEOM FDMS)
04-01-2014,08:00,1.100,R,ugm-3 (TEOM FDMS),4.600,R,ugm-3 (TEOM FDMS),3.600,R,ugm-3 (TEOM FDMS)
04-01-2014,09:00,0.800,R,ugm-3 (TEOM FDMS),4.900,R,ugm-3 (TEOM FDMS),4.200,R,ugm-3 (TEOM FDMS)
04-01-2014,10:00,3.500,R,ugm-3 (TEOM FDMS),6.800,R,ugm-3 (TEOM FDMS),3.500,R,ugm-3 (TEOM FDMS)
04-01-2014,11:00,4.400,R,ugm-3 (TEOM FDMS),7.000,R,ugm-3 (TEOM FDMS),2.700,R,ugm-3 (TEOM FDMS)
04-01-2014,12:00,1.400,R,ugm-3 (TEOM FDMS),5.500,R,ugm-3 (TEOM FDMS),4.200,R,ugm-3 (TEOM FDMS)
04-01-2014,13:00,0.300,R,ugm-3 (TEOM FDMS),3.100,R,ugm-3 (TEOM FDMS),2.800,R,ugm-3 (TEOM FDMS)
04-01-2014,14:00,3.100,R,ugm-3 (TEOM FDMS),3.300,R,ugm-3 (TEOM FDMS),0.300,R,ugm-3 (TEOM FDMS)
04-01-2014,15:00,2.100,R,ugm-3 (TEOM FDMS),2.600,R,ugm-3 (TEOM FDMS),0.500,R,ugm-3 (TEOM FDMS)
04-01-2014,16:00,2.500,R,ugm-3 (TEOM FDMS),2.400,R,ugm-3 (TEOM FDMS),-0.100,R,ugm-3 (TEOM FDMS)
04-01-2014,17:00,1.900,R,ugm-3 (TEOM FDMS),3.300,R,ugm-3 (TEOM FDMS),1.400,R,ugm-3 (TEOM FDMS)
04-01-2014,18:00,1.200,R,ugm-3 (TEOM FDMS),1.600,R,ugm-3 (TEOM FDMS),0.400,R,ugm-3 (TEOM FDMS)
04-01-2014,19:00,8.100,R,ugm-3 (TEOM FDMS),6.500,R,ugm-3 (TEOM FDMS),-1.500,R,ugm-3 (TEOM FDMS)
04-01-2014,20:00,5.300,R,ugm-3 (TEOM FDMS),6.300,R,ugm-3 (TEOM FDMS),1.100,R,ugm-3 (TEOM FDMS)
04-01-2014,21:00,6.400,R,ugm-3 (TEOM FDMS),8.200,R,ugm-3 (TEOM FDMS),1.900,R,ugm-3 (TEOM FDMS)
04-01-2014,22:00,5.900,R,ugm-3 (TEOM FDMS),7.400,R,ugm-3 (TEOM FDMS),1.600,R,ugm-3 (TEOM FDMS)
04-01-2014,23:00,7.200,R,ugm-3 (TEOM FDMS),6.800,R,ugm-3 (TEOM FDMS),-0.300,R,ugm-3 (TEOM FDMS)
04-01-2014,24:00,8.300,R,ugm-3 (TEOM FDMS),7.500,R,ugm-3 (TEOM FDMS),-0.700,R,ugm-3 (TEOM FDMS)
05-01-2014,01:00,5.700,R,ugm-3 (TEOM FDMS),4.900,R,ugm-3 (TEOM FDMS),-0.700,R,ugm-3 (TEOM FDMS)
05-01-2014,02:00,8.500,R,ugm-3 (TEOM FDMS),9.600,R,ugm-3 (TEOM FDMS),1.200,R,ugm-3 (TEOM FDMS)
05-01-2014,03:00,5.100,R,ugm-3 (TEOM FDMS),5.100,R,ugm-3 (TEOM FDMS),0.100,R,ugm-3 (TEOM FDMS)
05-01-2014,04:00,7.000,R,ugm-3 (TEOM FDMS),8.000,R,ugm-3 (TEOM FDMS),1.100,R,ugm-3 (TEOM FDMS)
05-01-2014,05:00,6.600,R,ugm-3 (TEOM FDMS),7.400,R,ugm-3 (TEOM FDMS),0.900,R,ugm-3 (TEOM FDMS)
05-01-2014,06:00,4.800,R,ugm-3 (TEOM FDMS),6.000,R,ugm-3 (TEOM FDMS),1.300,R,ugm-3 (TEOM FDMS)
05-01-2014,07:00,5.800,R,ugm-3 (TEOM FDMS),5.800,R,ugm-3 (TEOM FDMS),0.100,R,ugm-3 (TEOM FDMS)
05-01-2014,08:00,6.500,R,ugm-3 (TEOM FDMS),6.900,R,ugm-3 (TEOM FDMS),0.500,R,ugm-3 (TEOM FDMS)
05-01-2014,09:00,9.700,R,ugm-3 (TEOM FDMS),12.300,R,ugm-3 (TEOM FDMS),2.800,R,ugm-3 (TEOM FDMS)
05-01-2014,10:00,6.300,R,ugm-3 (TEOM FDMS),8.100,R,ugm-3 (TEOM FDMS),1.900,R,ugm-3 (TEOM FDMS)
05-01-2014,11:00,3.100,R,ugm-3 (TEOM FDMS),5.600,R,ugm-3 (TEOM FDMS),2.600,R,ugm-3 (TEOM FDMS)
05-01-2014,12:00,3.900,R,ugm-3 (TEOM FDMS),5.600,R,ugm-3 (TEOM FDMS),1.800,R,ugm-3 (TEOM FDMS)
05-01-2014,13:00,3.400,R,ugm-3 (TEOM FDMS),6.300,R,ugm-3 (TEOM FDMS),3.100,R,ugm-3 (TEOM FDMS)
05-01-2014,14:00,4.300,R,ugm-3 (TEOM FDMS),6.300,R,ugm-3 (TEOM FDMS),2.100,R,ugm-3 (TEOM FDMS)
05-01-2014,15:00,2.500,R,ugm-3 (TEOM FDMS),6.500,R,ugm-3 (TEOM FDMS),4.100,R,ugm-3 (TEOM FDMS)
05-01-2014,16:00,2.700,R,ugm-3 (TEOM FDMS),7.200,R,ugm-3 (TEOM FDMS),4.600,R,ugm-3 (TEOM FDMS)
05-01-2014,17:00,0.100,R,ugm-3 (TEOM FDMS),2.400,R,ugm-3 (TEOM FDMS),2.300,R,ugm-3 (TEOM FDMS)
05-01-2014,18:00,1.800,R,ugm-3 (TEOM FDMS),4.000,R,ugm-3 (TEOM FDMS),2.200,R,ugm-3 (TEOM FDMS)
05-01-2014,19:00,1.300,R,ugm-3 (TEOM FDMS),4.900,R,ugm-3 (TEOM FDMS),3.700,R,ugm-3 (TEOM FDMS)
05-01-2014,20:00,0.200,R,ugm-3 (TEOM FDMS),4.000,R,ugm-3 (TEOM FDMS),3.900,R,ugm-3 (TEOM FDMS)
05-01-2014,21:00,0.400,R,ugm-3 (TEOM FDMS),4.500,R,ugm-3 (TEOM FDMS),4.200,R,ugm-3 (TEOM FDMS)
05-01-2014,22:00,1.500,R,ugm-3 (TEOM FDMS),4.500,R,ugm-3 (TEOM FDMS),3.100,R,ugm-3 (TEOM FDMS)
05-01-2014,23:00,0.700,R,ugm-3 (TEOM FDMS),3.000,R,ugm-3 (TEOM FDMS),2.300,R,ugm-3 (TEOM FDMS)
05-01-2014,24:00,0.200,R,ugm-3 (TEOM FDMS),3.600,R,ugm-3 (TEOM FDMS),3.500,R,ugm-3 (TEOM FDMS)
06-01-2014,01:00,-1.800,R,ugm-3 (TEOM FDMS),1.300,R,ugm-3 (TEOM FDMS),3.200,R,ugm-3 (TEOM FDMS)
06-01-2014,02:00,-1.000,R,ugm-3 (TEOM FDMS),1.200,R,ugm-3 (TEOM FDMS),2.200,R,ugm-3 (TEOM FDMS)
06-01-2014,03:00,0.800,R,ugm-3 (TEOM FDMS),3.400,R,ugm-3 (TEOM FDMS),2.600,R,ugm-3 (TEOM FDMS)
06-01-2014,04:00,4.000,R,ugm-3 (TEOM FDMS),7.300,R,ugm-3 (TEOM FDMS),3.500,R,ugm-3 (TEOM FDMS)
06-01-2014,05:00,-0.100,R,ugm-3 (TEOM FDMS),-0.400,R,ugm-3 (TEOM FDMS),-0.300,R,ugm-3 (TEOM FDMS)
06-01-2014,06:00,4.400,R,ugm-3 (TEOM FDMS),8.000,R,ugm-3 (TEOM FDMS),3.800,R,ugm-3 (TEOM FDMS)
06-01-2014,07:00,5.300,R,ugm-3 (TEOM FDMS),7.200,R,ugm-3 (TEOM FDMS),2.000,R,ugm-3 (TEOM FDMS)
06-01-2014,08:00,2.000,R,ugm-3 (TEOM FDMS),3.100,R,ugm-3 (TEOM FDMS),1.100,R,ugm-3 (TEOM FDMS)
06-01-2014,09:00,6.400,R,ugm-3 (TEOM FDMS),7.400,R,ugm-3 (TEOM FDMS),1.100,R,ugm-3 (TEOM FDMS)
06-01-2014,10:00,3.500,R,ugm-3 (TEOM FDMS),3.600,R,ugm-3 (TEOM FDMS),0.200,R,ugm-3 (TEOM FDMS)
06-01-2014,11:00,8.500,R,ugm-3 (TEOM FDMS),11.400,R,ugm-3 (TEOM FDMS),3.100,R,ugm-3 (TEOM FDMS)
06-01-2014,12:00,11.100,R,ugm-3 (TEOM FDMS),14.000,R,ugm-3 (TEOM FDMS),3.200,R,ugm-3 (TEOM FDMS)
06-01-2014,13:00,11.700,R,ugm-3 (TEOM FDMS),15.500,R,ugm-3 (TEOM FDMS),4.100,R,ugm-3 (TEOM FDMS)
06-01-2014,14:00,10.500,R,ugm-3 (TEOM FDMS),12.200,R,ugm-3 (TEOM FDMS),1.900,R,ugm-3 (TEOM FDMS)
06-01-2014,15:00,6.500,R,ugm-3 (TEOM FDMS),9.400,R,ugm-3 (TEOM FDMS),3.100,R,ugm-3 (TEOM FDMS)
06-01-2014,16:00,7.100,R,ugm-3 (TEOM FDMS),8.300,R,ugm-3 (TEOM FDMS),1.300,R,ugm-3 (TEOM FDMS)
06-01-2014,17:00,10.400,R,ugm-3 (TEOM FDMS),12.600,R,ugm-3 (TEOM FDMS),2.400,R,ugm-3 (TEOM FDMS)
06-01-2014,18:00,8.500,R,ugm-3 (TEOM FDMS),9.900,R,ugm-3 (TEOM FDMS),1.500,R,ugm-3 (TEOM FDMS)
06-01-2014,19:00,13.000,R,ugm-3 (TEOM FDMS),14.200,R,ugm-3 (TEOM FDMS),1.400,R,ugm-3 (TEOM FDMS)
06-01-2014,20:00,8.800,R,ugm-3 (TEOM FDMS),7.400,R,ugm-3 (TEOM FDMS),-1.300,R,ugm-3 (TEOM FDMS)
06-01-2014,21:00,5.300,R,ugm-3 (TEOM FDMS),4.400,R,ugm-3 (TEOM FDMS),-0.800,R,ugm-3 (TEOM FDMS)
06-01-2014,22:00,5.900,R,ugm-3 (TEOM FDMS),6.400,R,ugm-3 (TEOM FDMS),0.600,R,ugm-3 (TEOM FDMS)
06-01-2014,23:00,8.100,R,ugm-3 (TEOM FDMS),9.200,R,ugm-3 (TEOM FDMS),1.200,R,ugm-3 (TEOM FDMS)
06-01-2014,24:00,6.300,R,ugm-3 (TEOM FDMS),5.400,R,ugm-3 (TEOM FDMS),-0.800,R,ugm-3 (TEOM FDMS)
07-01-2014,01:00,7.600,R,ugm-3 (TEOM FDMS),9.000,R,ugm-3 (TEOM FDMS),1.500,R,ugm-3 (TEOM FDMS)
07-01-2014,02:00,4.400,R,ugm-3 (TEOM FDMS),4.200,R,ugm-3 (TEOM FDMS),-0.100,R,ugm-3 (TEOM FDMS)
07-01-2014,03:00,7.300,R,ugm-3 (TEOM FDMS),7.700,R,ugm-3 (TEOM FDMS),0.500,R,ugm-3 (TEOM FDMS)
07-01-2014,04:00,4.800,R,ugm-3 (TEOM FDMS),5.000,R,ugm-3 (TEOM FDMS),0.300,R,ugm-3 (TEOM FDMS)
07-01-2014,05:00,5.200,R,ugm-3 (TEOM FDMS),8.100,R,ugm-3 (TEOM FDMS),3.100,R,ugm-3 (TEOM FDMS)
07-01-2014,06:00,6.800,R,ugm-3 (TEOM FDMS),8.000,R,ugm-3 (TEOM FDMS),1.300,R,ugm-3 (TEOM FDMS)
07-01-2014,07:00,5.300,R,ugm-3 (TEOM FDMS),1.100,R,ugm-3 (TEOM FDMS),-4.200,R,ugm-3 (TEOM FDMS)
07-01-2014,08:00,7.700,R,ugm-3 (TEOM FDMS),10.200,R,ugm-3 (TEOM FDMS),2.600,R,ugm-3 (TEOM FDMS)
07-01-2014,09:00,5.500,R,ugm-3 (TEOM FDMS),6.200,R,ugm-3 (TEOM FDMS),0.800,R,ugm-3 (TEOM FDMS)
07-01-2014,10:00,9.900,R,ugm-3 (TEOM FDMS),10.000,R,ugm-3 (TEOM FDMS),0.300,R,ugm-3 (TEOM FDMS)
07-01-2014,11:00,1.000,R,ugm-3 (TEOM FDMS),0.900,R,ugm-3 (TEOM FDMS),-0.100,R,ugm-3 (TEOM FDMS)
07-01-2014,12:00,3.400,R,ugm-3 (TEOM FDMS),2.700,R,ugm-3 (TEOM FDMS),-0.600,R,ugm-3 (TEOM FDMS)
07-01-2014,13:00,7.100,R,ugm-3 (TEOM FDMS),9.900,R,ugm-3 (TEOM FDMS),2.900,R,ugm-3 (TEOM FDMS)
07-01-2014,14:00,8.600,R,ugm-3 (TEOM FDMS),8.600,R,ugm-3 (TEOM FDMS),0.100,R,ugm-3 (TEOM FDMS)
07-01-2014,15:00,8.200,R,ugm-3 (TEOM FDMS),10.800,R,ugm-3 (TEOM FDMS),2.700,R,ugm-3 (TEOM FDMS)
07-01-2014,16:00,7.000,R,ugm-3 (TEOM FDMS),9.600,R,ugm-3 (TEOM FDMS),2.700,R,ugm-3 (TEOM FDMS)
07-01-2014,17:00,9.800,R,ugm-3 (TEOM FDMS),10.800,R,ugm-3 (TEOM FDMS),1.200,R,ugm-3 (TEOM FDMS)
07-01-2014,18:00,7.700,R,ugm-3 (TEOM FDMS),7.900,R,ugm-3 (TEOM FDMS),0.300,R,ugm-3 (TEOM FDMS)
07-01-2014,19:00,9.700,R,ugm-3 (TEOM FDMS),9.600,R,ugm-3 (TEOM FDMS),0.100,R,ugm-3 (TEOM FDMS)
07-01-2014,20:00,11.500,R,ugm-3 (TEOM FDMS),12.100,R,ugm-3 (TEOM FDMS),0.800,R,ugm-3 (TEOM FDMS)
07-01-2014,21:00,8.900,R,ugm-3 (TEOM FDMS),8.500,R,ugm-3 (TEOM FDMS),-0.300,R,ugm-3 (TEOM FDMS)
07-01-2014,22:00,7.000,R,ugm-3 (TEOM FDMS),7.200,R,ugm-3 (TEOM FDMS),0.300,R,ugm-3 (TEOM FDMS)
07-01-2014,23:00,5.000,R,ugm-3 (TEOM FDMS),5.700,R,ugm-3 (TEOM FDMS),0.800,R,ugm-3 (TEOM FDMS)
07-01-2014,24:00,5.100,R,ugm-3 (TEOM FDMS),5.300,R,ugm-3 (TEOM FDMS),0.300,R,ugm-3 (TEOM FDMS)
08-01-2014,01:00,4.200,R,ugm-3 (TEOM FDMS),7.400,R,ugm-3 (TEOM FDMS),3.400,R,ugm-3 (TEOM FDMS)
08-01-2014,02:00,3.700,R,ugm-3 (TEOM FDMS),3.400,R,ugm-3 (TEOM FDMS),-0.200,R,ugm-3 (TEOM FDMS)
08-01-2014,03:00,4.100,R,ugm-3 (TEOM FDMS),4.700,R,ugm-3 (TEOM FDMS),0.700,R,ugm-3 (TEOM FDMS)
08-01-2014,04:00,3.300,R,ugm-3 (TEOM FDMS),3.700,R,ugm-3 (TEOM FDMS),0.500,R,ugm-3 (TEOM FDMS)
08-01-2014,05:00,0.300,R,ugm-3 (TEOM FDMS),-0.300,R,ugm-3 (TEOM FDMS),-0.600,R,ugm-3 (TEOM FDMS)
08-01-2014,06:00,3.600,R,ugm-3 (TEOM FDMS),4.700,R,ugm-3 (TEOM FDMS),1.200,R,ugm-3 (TEOM FDMS)
08-01-2014,07:00,1.900,R,ugm-3 (TEOM FDMS),2.200,R,ugm-3 (TEOM FDMS),0.300,R,ugm-3 (TEOM FDMS)
08-01-2014,08:00,5.000,R,ugm-3 (TEOM FDMS),5.300,R,ugm-3 (TEOM FDMS),0.400,R,ugm-3 (TEOM FDMS)
08-01-2014,09:00,5.800,R,ugm-3 (TEOM FDMS),6.000,R,ugm-3 (TEOM FDMS),0.300,R,ugm-3 (TEOM FDMS)
08-01-2014,10:00,8.400,R,ugm-3 (TEOM FDMS),7.400,R,ugm-3 (TEOM FDMS),-0.900,R,ugm-3 (TEOM FDMS)
08-01-2014,11:00,9.600,R,ugm-3 (TEOM FDMS),11.000,R,ugm-3 (TEOM FDMS),1.600,R,ugm-3 (TEOM FDMS)
08-01-2014,12:00,6.900,R,ugm-3 (TEOM FDMS),7.100,R,ugm-3 (TEOM FDMS),0.300,R,ugm-3 (TEOM FDMS)
08-01-2014,13:00,6.100,R,ugm-3 (TEOM FDMS),6.500,R,ugm-3 (TEOM FDMS),0.500,R,ugm-3 (TEOM FDMS)
08-01-2014,14:00,7.800,R,ugm-3 (TEOM FDMS),12.400,R,ugm-3 (TEOM FDMS),4.800,R,ugm-3 (TEOM FDMS)
08-01-2014,15:00,9.600,R,ugm-3 (TEOM FDMS),12.900,R,ugm-3 (TEOM FDMS),3.600,R,ugm-3 (TEOM FDMS)
08-01-2014,16:00,6.900,R,ugm-3 (TEOM FDMS),11.800,R,ugm-3 (TEOM FDMS),5.100,R,ugm-3 (TEOM FDMS)
08-01-2014,17:00,7.000,R,ugm-3 (TEOM FDMS),10.200,R,ugm-3 (TEOM FDMS),3.400,R,ugm-3 (TEOM FDMS)
08-01-2014,18:00,4.800,R,ugm-3 (TEOM FDMS),8.800,R,ugm-3 (TEOM FDMS),4.200,R,ugm-3 (TEOM FDMS)
08-01-2014,19:00,5.400,R,ugm-3 (TEOM FDMS),6.600,R,ugm-3 (TEOM FDMS),1.300,R,ugm-3 (TEOM FDMS)
08-01-2014,20:00,5.800,R,ugm-3 (TEOM FDMS),9.500,R,ugm-3 (TEOM FDMS),3.900,R,ugm-3 (TEOM FDMS)
08-01-2014,21:00,6.800,R,ugm-3 (TEOM FDMS),9.500,R,ugm-3 (TEOM FDMS),2.800,R,ugm-3 (TEOM FDMS)
08-01-2014,22:00,9.100,R,ugm-3 (TEOM FDMS),12.600,R,ugm-3 (TEOM FDMS),3.800,R,ugm-3 (TEOM FDMS)
08-01-2014,23:00,8.600,R,ugm-3 (TEOM FDMS),12.500,R,ugm-3 (TEOM FDMS),4.100,R,ugm-3 (TEOM FDMS)
08-01-2014,24:00,2.600,R,ugm-3 (TEOM FDMS),5.800,R,ugm-3 (TEOM FDMS),3.300,R,ugm-3 (TEOM FDMS)
09-01-2014,01:00,1.100,R,ugm-3 (TEOM FDMS),6.000,R,ugm-3 (TEOM FDMS),5.000,R,ugm-3 (TEOM FDMS)
09-01-2014,02:00,2.100,R,ugm-3 (TEOM FDMS),8.700,R,ugm-3 (TEOM FDMS),6.700,R,ugm-3 (TEOM FDMS)
09-01-2014,03:00,-1.000,R,ugm-3 (TEOM FDMS),2.700,R,ugm-3 (TEOM FDMS),3.800,R,ugm-3 (TEOM FDMS)
09-01-2014,04:00,1.800,R,ugm-3 (TEOM FDMS),8.700,R,ugm-3 (TEOM FDMS),7.000,R,ugm-3 (TEOM FDMS)
09-01-2014,05:00,2.900,R,ugm-3 (TEOM FDMS),6.100,R,ugm-3 (TEOM FDMS),3.300,R,ugm-3 (TEOM FDMS)
09-01-2014,06:00,1.900,R,ugm-3 (TEOM FDMS),5.500,R,ugm-3 (TEOM FDMS),3.700,R,ugm-3 (TEOM FDMS)
09-01-2014,07:00,5.300,R,ugm-3 (TEOM FDMS),6.900,R,ugm-3 (TEOM FDMS),1.700,R,ugm-3 (TEOM FDMS)
09-01-2014,08:00,2.900,R,ugm-3 (TEOM FDMS),3.400,R,ugm-3 (TEOM FDMS),0.500,R,ugm-3 (TEOM FDMS)
09-01-2014,09:00,2.800,R,ugm-3 (TEOM FDMS),4.100,R,ugm-3 (TEOM FDMS),1.300,R,ugm-3 (TEOM FDMS)
09-01-2014,10:00,4.900,R,ugm-3 (TEOM FDMS),4.500,R,ugm-3 (TEOM FDMS),-0.300,R,ugm-3 (TEOM FDMS)
09-01-2014,11:00,4.200,R,ugm-3 (TEOM FDMS),3.700,R,ugm-3 (TEOM FDMS),-0.400,R,ugm-3 (TEOM FDMS)
09-01-2014,12:00,2.400,R,ugm-3 (TEOM FDMS),2.500,R,ugm-3 (TEOM FDMS),0.100,R,ugm-3 (TEOM FDMS)
09-01-2014,13:00,4.300,R,ugm-3 (TEOM FDMS),5.700,R,ugm-3 (TEOM FDMS),1.500,R,ugm-3 (TEOM FDMS)
09-01-2014,14:00,5.300,R,ugm-3 (TEOM FDMS),6.800,R,ugm-3 (TEOM FDMS),1.600,R,ugm-3 (TEOM FDMS)
09-01-2014,15:00,5.000,R,ugm-3 (TEOM FDMS),5.500,R,ugm-3 (TEOM FDMS),0.600,R,ugm-3 (TEOM FDMS)
09-01-2014,16:00,2.600,R,ugm-3 (TEOM FDMS),3.600,R,ugm-3 (TEOM FDMS),1.000,R,ugm-3 (TEOM FDMS)
09-01-2014,17:00,4.600,R,ugm-3 (TEOM FDMS),5.300,R,ugm-3 (TEOM FDMS),0.800,R,ugm-3 (TEOM FDMS)
09-01-2014,18:00,7.400,R,ugm-3 (TEOM FDMS),7.800,R,ugm-3 (TEOM FDMS),0.500,R,ugm-3 (TEOM FDMS)
09-01-2014,19:00,8.000,R,ugm-3 (TEOM FDMS),7.800,R,ugm-3 (TEOM FDMS),-0.100,R,ugm-3 (TEOM FDMS)
09-01-2014,20:00,8.300,R,ugm-3 (TEOM FDMS),7.900,R,ugm-3 (TEOM FDMS),-0.300,R,ugm-3 (TEOM FDMS)
09-01-2014,21:00,7.800,R,ugm-3 (TEOM FDMS),8.100,R,ugm-3 (TEOM FDMS),0.400,R,ugm-3 (TEOM FDMS)
09-01-2014,22:00,7.800,R,ugm-3 (TEOM FDMS),7.300,R,ugm-3 (TEOM FDMS),-0.400,R,ugm-3 (TEOM FDMS)
09-01-2014,23:00,6.900,R,ugm-3 (TEOM FDMS),7.800,R,ugm-3 (TEOM FDMS),1.000,R,ugm-3 (TEOM FDMS)
09-01-2014,24:00,7.300,R,ugm-3 (TEOM FDMS),8.200,R,ugm-3 (TEOM FDMS),1.000,R,ugm-3 (TEOM FDMS)
10-01-2014,01:00,5.300,R,ugm-3 (TEOM FDMS),7.800,R,ugm-3 (TEOM FDMS),2.600,R,ugm-3 (TEOM FDMS)
10-01-2014,02:00,4.800,R,ugm-3 (TEOM FDMS),4.600,R,ugm-3 (TEOM FDMS),-0.100,R,ugm-3 (TEOM FDMS)
10-01-2014,03:00,3.800,R,ugm-3 (TEOM FDMS),5.500,R,ugm-3 (TEOM FDMS),1.800,R,ugm-3 (TEOM FDMS)
10-01-2014,04:00,5.600,R,ugm-3 (TEOM FDMS),7.400,R,ugm-3 (TEOM FDMS),1.900,R,ugm-3 (TEOM FDMS)
10-01-2014,05:00,2.700,R,ugm-3 (TEOM FDMS),6.500,R,ugm-3 (TEOM FDMS),3.900,R,ugm-3 (TEOM FDMS)
10-01-2014,06:00,4.200,R,ugm-3 (TEOM FDMS),5.500,R,ugm-3 (TEOM FDMS),1.400,R,ugm-3 (TEOM FDMS)
10-01-2014,07:00,7.500,R,ugm-3 (TEOM FDMS),8.300,R,ugm-3 (TEOM FDMS),0.900,R,ugm-3 (TEOM FDMS)
10-01-2014,08:00,8.300,R,ugm-3 (TEOM FDMS),9.700,R,ugm-3 (TEOM FDMS),1.500,R,ugm-3 (TEOM FDMS)
10-01-2014,09:00,12.600,R,ugm-3 (TEOM FDMS),15.300,R,ugm-3 (TEOM FDMS),2.900,R,ugm-3 (TEOM FDMS)
10-01-2014,10:00,17.300,R,ugm-3 (TEOM FDMS),16.700,R,ugm-3 (TEOM FDMS),-0.300,R,ugm-3 (TEOM FDMS)
10-01-2014,11:00,13.400,R,ugm-3 (TEOM FDMS),17.000,R,ugm-3 (TEOM FDMS),3.900,R,ugm-3 (TEOM FDMS)
10-01-2014,12:00,10.900,R,ugm-3 (TEOM FDMS),14.700,R,ugm-3 (TEOM FDMS),4.100,R,ugm-3 (TEOM FDMS)
10-01-2014,13:00,8.600,R,ugm-3 (TEOM FDMS),11.500,R,ugm-3 (TEOM FDMS),3.100,R,ugm-3 (TEOM FDMS)
10-01-2014,14:00,4.700,R,ugm-3 (TEOM FDMS),7.400,R,ugm-3 (TEOM FDMS),2.800,R,ugm-3 (TEOM FDMS)
10-01-2014,15:00,6.700,R,ugm-3 (TEOM FDMS),10.200,R,ugm-3 (TEOM FDMS),3.700,R,ugm-3 (TEOM FDMS)
10-01-2014,16:00,5.100,R,ugm-3 (TEOM FDMS),6.400,R,ugm-3 (TEOM FDMS),1.400,R,ugm-3 (TEOM FDMS)
10-01-2014,17:00,8.000,R,ugm-3 (TEOM FDMS),10.500,R,ugm-3 (TEOM FDMS),2.600,R,ugm-3 (TEOM FDMS)
10-01-2014,18:00,6.300,R,ugm-3 (TEOM FDMS),8.700,R,ugm-3 (TEOM FDMS),2.500,R,ugm-3 (TEOM FDMS)
10-01-2014,19:00,6.700,R,ugm-3 (TEOM FDMS),9.700,R,ugm-3 (TEOM FDMS),3.200,R,ugm-3 (TEOM FDMS)
10-01-2014,20:00,8.700,R,ugm-3 (TEOM FDMS),10.000,R,ugm-3 (TEOM FDMS),1.400,R,ugm-3 (TEOM FDMS)
10-01-2014,21:00,7.000,R,ugm-3 (TEOM FDMS),8.500,R,ugm-3 (TEOM FDMS),1.600,R,ugm-3 (TEOM FDMS)
10-01-2014,22:00,6.300,R,ugm-3 (TEOM FDMS),8.000,R,ugm-3 (TEOM FDMS),1.800,R,ugm-3 (TEOM FDMS)
10-01-2014,23:00,6.400,R,ugm-3 (TEOM FDMS),8.200,R,ugm-3 (TEOM FDMS),1.900,R,ugm-3 (TEOM FDMS)
10-01-2014,24:00,2.600,R,ugm-3 (TEOM FDMS),5.500,R,ugm-3 (TEOM FDMS),2.900,R,ugm-3 (TEOM FDMS)
11-01-2014,01:00,2.700,R,ugm-3 (TEOM FDMS),5.900,R,ugm-3 (TEOM FDMS),3.300,R,ugm-3 (TEOM FDMS)
11-01-2014,02:00,3.800,R,ugm-3 (TEOM FDMS),6.400,R,ugm-3 (TEOM FDMS),2.700,R,ugm-3 (TEOM FDMS)
11-01-2014,03:00,4.700,R,ugm-3 (TEOM FDMS),6.800,R,ugm-3 (TEOM FDMS),2.200,R,ugm-3 (TEOM FDMS)
11-01-2014,04:00,5.700,R,ugm-3 (TEOM FDMS),7.200,R,ugm-3 (TEOM FDMS),1.600,R,ugm-3 (TEOM FDMS)
11-01-2014,05:00,4.200,R,ugm-3 (TEOM FDMS),6.800,R,ugm-3 (TEOM FDMS),2.700,R,ugm-3 (TEOM FDMS)
11-01-2014,06:00,1.500,R,ugm-3 (TEOM FDMS),2.100,R,ugm-3 (TEOM FDMS),0.600,R,ugm-3 (TEOM FDMS)
11-01-2014,07:00,1.400,R,ugm-3 (TEOM FDMS),4.000,R,ugm-3 (TEOM FDMS),2.600,R,ugm-3 (TEOM FDMS)
11-01-2014,08:00,2.300,R,ugm-3 (TEOM FDMS),2.700,R,ugm-3 (TEOM FDMS),0.400,R,ugm-3 (TEOM FDMS)